FW8285 Weather Reports


Display with metric or nautical units.
time (UTC)temp
F
wind
direction
speed
MPH
gust
MPH
rain 1hr
in
rain 24hr
in
rain mn
in
humidity
%
barometer
mb
20260505053038 61 0 0.0 3.0 0.00 0.00 0.00 56 1005.8
20260505051541 62 267 0.0 9.0 0.00 0.00 0.00 55 1005.8
20260505041548 55 0 0.0 0.0 0.00 0.00 0.00 64 1005.7
20260505040048 54 0 0.0 0.0 0.00 0.00 0.00 68 1005.6
20260505034545 53 0 0.0 0.0 0.00 0.00 0.00 71 1005.6
20260505033042 52 0 0.0 0.0 0.00 0.00 0.00 73 1005.6
20260505031541 52 0 0.0 0.0 0.00 0.00 0.00 74 1005.6
20260505030038 52 0 0.0 0.0 0.00 0.00 0.00 73 1005.6
20260505024544 52 0 0.0 1.0 0.00 0.00 0.00 72 1005.6
20260505023046 53 0 0.0 2.0 0.00 0.00 0.00 70 1005.6
20260505021542 54 0 0.0 2.0 0.00 0.00 0.00 68 1005.7
20260505020041 56 0 0.0 2.0 0.00 0.00 0.00 64 1005.9
20260505014545 57 0 0.0 2.0 0.00 0.00 0.00 59 1005.8
20260505013040 58 0 0.0 1.0 0.00 0.00 0.00 58 1005.9
20260505011537 59 0 0.0 2.0 0.00 0.00 0.00 56 1005.8
20260505010047 58 0 0.0 0.0 0.00 0.00 0.00 57 1005.6
20260505004541 59 0 0.0 1.0 0.00 0.00 0.00 57 1005.4
20260505003040 60 0 0.0 0.0 0.00 0.00 0.00 55 1005.4
20260505001549 61 0 0.0 0.0 0.00 0.00 0.00 53 1005.2
20260505000042 63 0 0.0 0.0 0.00 0.00 0.00 52 1005.3
20260504234549 66 0 0.0 0.0 0.00 0.00 0.00 47 1005.2
20260504233042 68 0 0.0 0.0 0.00 0.00 0.00 44 1004.9
20260504231555 69 0 0.0 6.0 0.00 0.00 0.00 41 1004.8
20260504230040 69 275 2.0 9.0 0.00 0.00 0.00 40 1004.7
20260504224547 71 275 1.0 4.0 0.00 0.00 0.00 39 1004.6
20260504223043 71 290 3.0 11.0 0.00 0.00 0.00 38 1004.6
20260504221548 71 215 2.0 9.0 0.00 0.00 0.00 38 1004.5
20260504220038 70 262 1.0 7.0 0.00 0.00 0.00 42 1004.6
20260504214538 69 273 1.0 9.0 0.00 0.00 0.00 43 1004.7
20260504213042 70 155 3.0 8.0 0.00 0.00 0.00 41 1004.8
20260504211549 70 263 2.0 9.0 0.00 0.00 0.00 41 1004.7
20260504210101 71 158 2.0 9.0 0.00 0.00 0.00 42 1004.8
20260504204548 69 257 1.0 10.0 0.00 0.00 0.00 42 1004.9
20260504203049 69 286 4.0 12.0 0.00 0.00 0.00 43 1005.0
20260504201548 69 252 3.0 11.0 0.00 0.00 0.00 43 1005.0
20260504200041 68 299 1.0 15.0 0.00 0.00 0.00 45 1005.1
20260504194558 70 167 2.0 15.0 0.00 0.00 0.00 41 1005.5
20260504193037 70 320 6.0 18.0 0.00 0.00 0.00 42 1005.4
20260504191545 67 167 3.0 11.0 0.00 0.00 0.00 46 1005.6
20260504184546 68 306 4.0 16.0 0.00 0.00 0.00 43 1005.9
20260504183040 68 241 6.0 16.0 0.00 0.00 0.00 45 1005.9
20260504181543 67 295 6.0 14.0 0.00 0.00 0.00 43 1005.9
20260504180059 67 123 3.0 15.0 0.00 0.00 0.00 45 1006.0
20260504174542 66 294 2.0 10.0 0.00 0.00 0.00 48 1006.1
20260504173051 66 207 4.0 11.0 0.00 0.00 0.00 45 1006.2
20260504171541 66 157 4.0 15.0 0.00 0.00 0.00 45 1006.2
20260504081545 40 0 0.0 2.0 0.00 0.00 0.00 84 1008.5